Temp
-7 -7 -7 -7 -7 -7 -8 -8 -8 -7 -8 -8 -7 -5 -4 -3 -2 1 1 1 4 3 4 3 3 5 6 5 6 6 6 7 7 6 7 7 7 7 7 7 8 8 8 8
-7 -7 -7 -7 -7 -7 -7 -8 -8 -8 -8 -8 -7 -5 -3 -4 -3 -0 0 0 1 2 3 4 3 4 5 5 5 6 6 6 7 7 6 6 6 7 7 7 7 7 7 7
-7 -7 -7 -7 -7 -7 -7 -8 -8 -8 -8 -7 -5 -6 -5 -5 -3 -1 0 1 1 1 2 3 4 3 3 4 5 5 5 6 6 8 7 7 6 7 7 7 7 7 7 8
-8 -8 -7 -6 -7 -7 -7 -8 -8 -7 -7 -7 -7 -6 -5 -5 -4 -3 -1 0 0 1 2 3 2 3 3 4 4 5 5 5 6 7 7 8 8 7 7 7 7 7 7 8
-9 -8 -7 -7 -7 -7 -7 -8 -8 -7 -7 -7 -7 -6 -5 -5 -3 -2 -2 -1 -0 1 1 2 2 2 3 3 4 4 4 5 5 6 6 7 7 7 7 8 7 7 7 7
-9 -8 -8 -8 -7 -7 -7 -8 -7 -7 -7 -7 -7 -6 -5 -4 -3 -2 -1 -1 -0 0 0 0 1 2 3 2 3 4 4 4 5 6 6 6 6 6 7 7 7 7 7 7
-9 -9 -8 -8 -8 -7 -7 -6 -7 -7 -7 -6 -6 -6 -5 -4 -3 -2 -2 -2 -1 -1 -1 0 1 2 3 1 2 3 4 4 5 5 5 4 6 6 6 6 7 7 7 7
-8 -8 -8 -9 -8 -8 -7 -7 -8 -7 -6 -6 -6 -6 -6 -5 -4 -3 -2 -3 -1 -2 -2 -1 0 2 1 1 2 2 2 4 4 4 4 5 6 6 6 6 7 7 7 7
-8 -8 -8 -9 -8 -7 -7 -7 -7 -8 -6 -6 -5 -6 -5 -5 -4 -4 -2 -2 -3 -3 -3 -2 0 1 1 2 1 2 2 2 3 3 4 4 5 6 6 6 6 6 7 7
-8 -8 -8 -8 -8 -8 -7 -7 -8 -8 -7 -6 -6 -6 -6 -5 -4 -4 -3 -3 -3 -2 -3 -3 -0 1 2 3 2 1 1 0 2 3 3 5 6 6 6 5 6 7 6 6
-9 -8 -8 -8 -8 -7 -7 -7 -8 -8 -7 -7 -6 -6 -6 -6 -5 -4 -4 -3 -3 -3 -3 -2 -0 0 2 3 3 2 2 1 1 2 3 3 5 5 5 6 6 6 6 5
-8 -8 -8 -8 -7 -7 -8 -8 -8 -8 -7 -6 -6 -6 -6 -6 -5 -4 -4 -4 -3 -3 -2 -2 -1 -0 0 1 2 2 1 3 3 3 4 4 5 5 5 5 6 5 5 5
-8 -8 -8 -8 -8 -7 -8 -7 -8 -8 -7 -7 -7 -7 -6 -6 -6 -5 -4 -4 -3 -3 -2 -2 -2 -1 -0 0 1 3 2 2 3 3 3 4 4 5 5 5 5 5 5 5
-8 -8 -8 -8 -8 -8 -8 -8 -8 -8 -7 -7 -7 -7 -6 -6 -5 -5 -5 -4 -4 -3 -3 -2 -2 -1 0 -0 1 1 2 2 2 2 2 3 4 4 4 5 4 4 4 4
-8 -8 -8 -8 -8 -8 -8 -8 -8 -8 -8 -7 -7 -6 -6 -6 -6 -5 -4 -3 -4 -4 -4 -3 -3 -2 -1 -1 -0 0 1 2 1 1 2 3 3 3 3 3 4 4 4 4
-8 -8 -8 -8 -8 -8 -8 -8 -8 -8 -8 -7 -7 -7 -7 -6 -6 -5 -5 -5 -4 -5 -4 -4 -3 -2 -1 -1 -0 0 2 1 1 1 1 1 2 3 3 3 3 4 4 3
-8 -8 -8 -9 -9 -8 -8 -8 -8 -8 -8 -8 -8 -8 -7 -7 -7 -6 -6 -6 -5 -4 -4 -3 -3 -2 -2 -2 -2 2 1 0 0 1 0 1 1 2 2 2 3 3 3 3
-9 -9 -9 -9 -9 -9 -9 -8 -7 -8 -8 -8 -8 -8 -7 -6 -6 -6 -5 -5 -5 -5 -4 -4 -3 -3 -2 -3 -0 3 1 0 -0 -1 -0 0 1 1 2 2 2 2 2 2
-9 -9 -10 -9 -9 -9 -8 -8 -8 -8 -9 -8 -8 -7 -6 -5 -5 -6 -6 -5 -5 -5 -4 -4 -3 -3 -3 -2 1 -0 -1 -1 -1 -1 -1 0 1 1 1 2 2 2 2 2
-9 -10 -10 -9 -9 -9 -9 -9 -9 -9 -8 -8 -7 -7 -6 -5 -5 -5 -5 -4 -4 -4 -4 -4 -4 -3 -3 -2 -2 -2 -2 -1 -2 -1 -0 -0 0 0 0 0 1 1 1 1
-10 -10 -9 -10 -9 -9 -9 -8 -8 -8 -8 -7 -7 -7 -6 -6 -6 -5 -5 -4 -4 -3 -3 -3 -3 -3 -3 -3 -2 -2 -2 -2 -1 -1 -1 -1 -1 -1 -1 -1 -1 -0 -0 0
-9 -9 -9 -9 -9 -9 -8 -8 -8 -8 -8 -7 -7 -6 -6 -6 -6 -6 -5 -4 -4 -3 -3 -3 -3 -3 -3 -3 -3 -3 -3 -2 -2 -2 -1 -1 -1 -1 -1 -1 -0 -0 -1 -1
-9 -9 -9 -9 -9 -9 -8 -8 -8 -8 -7 -6 -6 -5 -7 -7 -6 -5 -4 -3 -4 -3 -3 -3 -4 -4 -3 -3 -2 -2 -2 -2 -3 -2 -2 -2 -2 -2 -2 -2 -2 -2 -3 -3
-9 -9 -9 -9 -9 -9 -8 -8 -7 -7 -6 -6 -5 -5 -6 -6 -5 -4 -4 -4 -3 -3 -4 -6 -6 -5 -4 -4 -4 -3 -3 -3 -3 -3 -2 -3 -3 -3 -3 -3 -4 -5 -5 -6
-8 -8 -8 -10 -9 -8 -8 -7 -7 -6 -7 -5 -5 -5 -5 -6 -5 -4 -5 -5 -6 -7 -8 -7 -7 -6 -5 -5 -5 -4 -4 -4 -4 -4 -4 -3 -4 -4 -5 -5 -6 -7 -8 -8
-8 -8 -8 -8 -9 -9 -8 -7 -7 -7 -6 -6 -6 -5 -5 -5 -5 -6 -6 -7 -10 -10 -9 -8 -7 -6 -6 -6 -5 -5 -5 -5 -5 -5 -6 -6 -6 -7 -7 -7 -9 -9 -9 -10
-9 -10 -9 -9 -9 -9 -8 -7 -7 -7 -6 -5 -6 -6 -6 -7 -7 -9 -9 -12 -12 -11 -10 -8 -8 -7 -7 -7 -7 -7 -7 -7 -7 -7 -8 -8 -8 -9 -9 -10 -10 -10 -10 -10
Height
2906 2913 2921 2929 2939 2949 2956 2962 2962 2973 2987 2992 2991 2989 2993 3008 3013 3021 3024 3026 3029 3031 3031 3032 3035 3037 3041 3044 3050 3054 3060 3064 3063 3068 3071 3072 3073 3075 3077 3078 3077 3078 3078 3075
2889 2897 2906 2916 2925 2934 2943 2949 2957 2969 2976 2974 2976 2979 2986 2999 3009 3013 3018 3022 3025 3027 3027 3031 3030 3032 3038 3042 3045 3048 3056 3058 3060 3062 3068 3068 3069 3070 3071 3073 3074 3076 3077 3077
2867 2878 2890 2901 2911 2921 2932 2939 2945 2955 2959 2964 2967 2968 2974 2990 2999 3007 3013 3018 3021 3022 3022 3025 3028 3027 3032 3036 3040 3046 3051 3054 3053 3053 3057 3063 3065 3066 3068 3069 3070 3072 3071 3070
2851 2861 2873 2884 2896 2907 2917 2919 2925 2931 2935 2939 2950 2966 2973 2976 2990 2999 3007 3011 3015 3018 3020 3022 3026 3027 3028 3031 3036 3040 3046 3047 3051 3053 3054 3055 3056 3059 3062 3063 3065 3065 3067 3066
2834 2846 2856 2867 2879 2890 2899 2900 2914 2926 2933 2942 2952 2959 2966 2975 2983 2995 2997 3005 3013 3017 3019 3019 3023 3024 3026 3027 3030 3035 3040 3042 3047 3048 3050 3051 3052 3054 3055 3056 3058 3059 3061 3061
2818 2830 2842 2853 2863 2875 2876 2890 2912 2923 2930 2934 2947 2945 2958 2969 2981 2988 2998 3005 3008 3012 3017 3014 3017 3018 3019 3022 3027 3031 3036 3039 3041 3042 3045 3047 3047 3048 3051 3052 3053 3055 3055 3058
2801 2814 2827 2841 2854 2857 2871 2886 2905 2914 2920 2927 2926 2943 2952 2961 2972 2981 2992 2998 3004 3009 3008 3010 3012 3015 3018 3020 3022 3025 3031 3034 3037 3039 3041 3039 3039 3044 3046 3047 3048 3049 3050 3051
2785 2800 2815 2829 2844 2857 2869 2883 2896 2907 2914 2923 2933 2941 2948 2961 2970 2976 2984 2991 3001 2998 3005 3008 3010 3011 3016 3018 3019 3022 3024 3030 3032 3033 3033 3036 3034 3037 3041 3043 3042 3043 3044 3045
2774 2789 2805 2821 2835 2844 2864 2877 2894 2905 2915 2918 2930 2936 2945 2952 2961 2970 2977 2989 2990 2995 3000 3005 3003 3005 3015 3015 3017 3018 3022 3024 3027 3028 3029 3026 3030 3035 3037 3039 3035 3037 3038 3039
2768 2783 2800 2816 2831 2845 2859 2873 2889 2902 2909 2919 2922 2928 2935 2945 2955 2965 2973 2977 2986 2990 2994 2999 2999 3000 3004 3006 3008 3013 3015 3018 3018 3022 3022 3020 3025 3028 3032 3034 3033 3033 3033 3035
2766 2782 2798 2813 2827 2839 2856 2870 2885 2899 2906 2915 2919 2926 2933 2942 2951 2956 2966 2974 2978 2983 2988 2992 2992 2994 2997 3001 3003 3004 3007 3011 3012 3016 3017 3018 3019 3023 3025 3025 3027 3028 3029 3030
2769 2785 2799 2815 2829 2842 2857 2870 2882 2897 2904 2912 2917 2922 2928 2935 2948 2957 2962 2960 2971 2974 2982 2986 2988 2989 2992 2996 2998 3002 3002 3005 3007 3010 3009 3012 3014 3017 3020 3022 3022 3023 3023 3023
2778 2791 2805 2818 2831 2844 2858 2869 2882 2893 2903 2911 2916 2921 2926 2930 2936 2942 2956 2960 2968 2973 2978 2982 2983 2985 2989 2990 2993 2998 2998 3001 3000 3004 3005 3008 3009 3011 3013 3015 3016 3017 3017 3017
2788 2799 2811 2822 2835 2849 2860 2870 2883 2894 2904 2910 2915 2917 2922 2928 2932 2937 2943 2957 2963 2967 2973 2973 2976 2979 2984 2986 2990 2991 2994 2996 2995 2995 2999 3003 3004 3005 3008 3009 3010 3010 3010 3009
2795 2805 2815 2827 2841 2851 2863 2876 2885 2893 2905 2909 2912 2914 2919 2924 2929 2931 2938 2947 2954 2959 2965 2966 2967 2973 2980 2981 2982 2981 2987 2988 2990 2989 2994 2995 2997 2999 3000 3001 3003 3002 3002 3001
2805 2815 2825 2837 2848 2857 2869 2878 2886 2893 2902 2908 2913 2915 2916 2921 2926 2930 2935 2942 2949 2955 2958 2960 2964 2970 2975 2975 2973 2976 2978 2981 2984 2984 2989 2989 2988 2990 2991 2993 2994 2994 2994 2993
2818 2827 2836 2846 2856 2865 2873 2881 2887 2895 2903 2909 2913 2914 2915 2919 2922 2927 2931 2938 2945 2950 2952 2955 2960 2966 2966 2966 2965 2972 2974 2976 2978 2980 2979 2977 2982 2982 2982 2985 2985 2986 2986 2985
2828 2837 2846 2854 2863 2871 2879 2884 2891 2898 2903 2907 2910 2911 2915 2916 2920 2924 2930 2935 2940 2943 2947 2952 2956 2960 2960 2958 2960 2965 2966 2967 2968 2969 2970 2971 2972 2974 2974 2976 2976 2977 2976 2976
2839 2847 2854 2861 2869 2875 2880 2886 2890 2896 2904 2904 2905 2908 2913 2914 2917 2920 2927 2931 2936 2941 2941 2946 2953 2952 2951 2953 2957 2958 2959 2959 2960 2963 2964 2964 2965 2966 2966 2967 2968 2967 2967 2967
2851 2857 2863 2869 2875 2880 2886 2891 2895 2899 2899 2901 2902 2905 2910 2912 2913 2916 2920 2916 2928 2933 2936 2943 2943 2942 2949 2952 2948 2950 2950 2950 2952 2953 2955 2955 2957 2957 2957 2957 2957 2956 2957 2956
2857 2863 2867 2873 2879 2884 2888 2892 2896 2897 2898 2898 2899 2903 2906 2911 2914 2917 2918 2921 2926 2928 2931 2936 2936 2936 2938 2936 2941 2942 2940 2944 2945 2945 2946 2948 2949 2949 2949 2948 2947 2946 2946 2945
2864 2867 2874 2879 2883 2888 2891 2892 2895 2895 2898 2897 2899 2904 2907 2909 2914 2917 2919 2918 2923 2922 2925 2929 2928 2926 2927 2929 2931 2932 2933 2933 2935 2938 2939 2940 2941 2940 2939 2937 2937 2936 2936 2935
2871 2875 2880 2883 2885 2886 2887 2888 2891 2893 2894 2898 2901 2903 2906 2909 2905 2905 2906 2910 2915 2918 2920 2920 2921 2921 2922 2923 2924 2924 2925 2926 2926 2927 2929 2931 2930 2930 2930 2928 2928 2928 2928 2928
2877 2879 2880 2881 2883 2884 2885 2887 2888 2892 2895 2898 2901 2903 2904 2903 2905 2905 2905 2910 2914 2916 2916 2917 2918 2918 2919 2919 2919 2919 2919 2919 2920 2921 2922 2922 2923 2924 2924 2923 2923 2923 2924 2925
2879 2880 2880 2881 2881 2882 2885 2885 2888 2891 2892 2895 2900 2905 2905 2904 2905 2905 2907 2910 2911 2912 2915 2915 2915 2915 2916 2916 2916 2916 2916 2916 2917 2917 2918 2919 2920 2921 2920 2921 2922 2923 2924 2926
2881 2881 2882 2881 2882 2883 2882 2884 2887 2891 2894 2898 2900 2901 2903 2903 2905 2906 2907 2910 2913 2915 2913 2913 2913 2913 2913 2914 2914 2914 2915 2915 2916 2916 2917 2917 2919 2920 2921 2922 2924 2926 2927 2928
2884 2883 2882 2883 2881 2881 2883 2886 2889 2892 2894 2894 2898 2900 2900 2903 2904 2906 2908 2912 2913 2912 2911 2911 2912 2912 2913 2913 2913 2914 2915 2916 2916 2917 2917 2919 2920 2921 2922 2925 2926 2927 2927 2927
Wind_Speed
45 45 43 43 41 38 39 42 49 42 40 43 50 66 56 32 39 29 26 20 27 19 17 26 18 28 30 23 34 37 31 20 21 24 18 21 18 21 21 18 15 12 14 18
54 51 49 48 47 45 45 50 47 38 46 53 50 62 70 39 31 37 30 23 20 18 15 15 29 21 24 14 35 36 32 23 22 19 17 17 20 19 20 21 17 15 12 12
51 56 53 51 51 52 51 56 46 43 45 54 50 56 53 50 45 33 33 28 21 21 19 19 9 24 21 25 17 34 35 26 28 25 24 21 23 22 23 23 18 20 22 20
47 49 57 54 54 58 58 66 46 60 60 64 57 48 49 52 46 39 36 31 28 19 14 17 16 18 23 25 29 31 31 36 27 28 22 17 19 23 25 27 27 27 22 22
47 49 52 54 60 63 66 69 53 59 39 55 49 44 53 49 49 47 36 36 33 23 17 15 15 10 13 16 24 26 30 29 30 28 25 25 22 22 24 24 24 26 26 25
48 53 56 59 57 64 70 72 61 45 52 36 47 51 49 46 47 46 41 34 25 30 20 17 23 19 22 14 11 26 25 28 26 28 27 26 30 27 25 24 23 23 26 23
54 54 60 61 61 62 67 68 60 40 40 39 52 45 46 53 41 45 41 34 32 23 30 25 22 22 23 12 13 19 23 25 25 18 18 13 23 19 22 26 26 23 22 23
53 55 60 58 59 64 58 65 65 49 39 41 32 38 36 43 42 37 41 27 33 24 24 24 20 21 21 21 16 14 19 21 23 20 22 18 18 22 20 20 22 21 21 22
51 54 59 57 55 78 55 59 66 49 40 38 30 29 35 46 46 37 38 39 23 26 23 17 17 18 25 14 14 18 16 18 25 15 21 18 27 25 15 16 25 21 20 17
49 56 57 57 53 59 60 59 66 54 36 16 27 28 32 42 40 44 36 40 29 33 27 23 23 25 23 28 20 17 21 19 26 26 14 17 18 16 17 18 25 9 11 14
44 54 53 54 58 60 62 59 64 51 30 30 18 21 23 33 46 41 32 37 29 28 22 21 14 13 25 25 25 21 25 22 21 22 20 16 18 20 23 25 17 16 15 14
45 53 49 50 48 55 48 59 55 58 28 20 28 24 24 32 41 35 37 35 30 24 22 20 19 13 17 19 25 19 16 21 27 18 17 22 16 17 20 20 19 18 18 16
48 47 46 45 44 52 50 54 49 57 51 25 25 28 26 30 46 39 38 41 22 28 24 19 16 16 18 18 22 27 26 18 22 17 22 18 16 14 18 19 19 19 20 21
40 39 40 46 47 47 49 53 40 43 34 19 15 17 28 30 49 43 45 32 21 24 26 25 20 22 16 15 17 22 24 18 22 32 31 28 28 32 24 23 23 24 24 24
39 39 40 44 53 54 46 38 34 44 29 18 11 12 18 33 45 37 34 39 29 28 27 29 27 22 17 16 22 26 23 23 25 26 19 25 27 28 28 30 27 22 24 25
40 36 39 48 47 43 41 34 33 36 32 8 15 20 13 30 43 45 42 38 32 27 25 24 24 21 21 16 23 22 26 26 26 27 22 25 24 22 22 23 24 26 25 25
31 36 36 40 40 38 36 33 33 29 29 20 4 5 18 19 21 43 41 41 31 25 22 23 17 18 22 24 25 27 18 18 23 23 25 34 28 31 34 28 27 28 29 27
39 40 46 41 37 31 34 24 21 26 23 23 6 5 9 19 20 25 33 40 39 28 24 19 21 20 22 21 26 27 31 30 25 22 27 31 32 33 30 29 29 31 32 32
33 30 28 32 33 26 20 23 28 29 19 11 12 9 9 22 26 26 31 30 33 25 32 26 18 25 22 17 25 27 22 21 21 22 26 33 31 29 32 36 39 38 37 35
30 32 33 29 25 21 18 17 20 22 16 17 19 16 16 21 29 26 21 13 22 19 25 23 28 28 23 22 22 16 20 24 23 24 25 26 27 28 31 34 36 39 40 42
30 25 23 27 25 21 18 12 11 10 10 19 22 21 23 17 14 22 18 12 12 10 12 23 17 27 29 39 38 38 39 33 29 28 29 27 26 30 35 37 38 39 39 37
22 20 28 26 20 11 6 9 8 6 9 9 16 25 26 25 8 27 32 18 14 8 12 14 7 16 20 28 30 32 35 39 39 40 37 37 39 35 35 35 33 32 33 33
21 21 20 11 5 4 7 7 5 7 10 11 7 13 25 26 15 8 6 7 6 7 11 8 6 9 11 14 18 22 22 22 22 24 26 30 33 33 34 35 33 30 27 26
17 6 4 3 3 3 5 5 7 10 10 14 7 12 10 8 1 4 5 5 7 8 6 4 4 8 8 9 7 5 9 13 17 19 20 16 14 14 12 9 12 12 12 12
3 3 1 1 3 10 10 11 11 14 13 13 14 16 16 10 3 2 3 6 3 3 3 2 2 3 3 4 3 3 3 4 5 7 8 9 10 8 6 5 4 3 3 4
5 3 5 9 8 7 13 17 17 17 15 12 13 5 5 3 4 4 4 3 4 2 1 1 1 2 2 3 4 4 4 5 5 5 5 6 5 4 4 6 8 6 4 2
7 3 4 7 4 7 15 19 17 16 13 13 9 4 4 5 3 4 5 6 4 4 2 2 2 2 2 4 6 9 12 9 8 8 9 8 9 9 8 6 5 1 2 3
Wind_Direction
234 237 233 226 218 217 210 206 216 217 196 195 209 208 214 210 216 218 213 227 222 224 216 207 212 214 212 208 204 205 204 209 197 211 213 218 227 215 219 229 235 239 259 271
231 229 229 222 217 211 210 204 212 207 199 199 208 214 221 212 218 217 217 225 215 217 209 214 221 201 206 212 204 207 200 214 214 194 203 213 224 221 222 226 242 237 217 252
236 228 221 221 215 211 211 200 198 201 208 217 217 215 213 212 209 221 216 220 224 219 215 206 227 222 213 213 218 210 205 212 214 215 212 217 218 224 225 228 226 238 249 262
230 225 216 217 213 209 208 200 199 197 204 211 215 216 212 209 211 219 213 218 220 213 204 206 220 205 218 213 216 206 209 217 218 226 228 220 222 219 226 230 233 240 250 260
228 220 216 218 207 207 207 199 197 204 216 210 209 210 215 214 210 208 217 216 220 217 213 200 195 189 200 209 213 208 201 217 221 231 227 234 235 239 233 235 238 247 250 256
225 218 211 210 207 208 206 202 200 206 203 208 207 214 212 214 209 214 218 221 219 213 201 181 196 180 188 178 187 203 205 209 218 233 227 235 241 234 238 240 243 247 247 252
220 216 209 208 204 214 208 203 199 198 201 207 214 213 208 206 210 209 208 211 218 217 225 212 193 196 215 203 185 180 207 211 216 215 216 224 234 236 239 245 249 249 249 249
215 208 204 205 204 208 207 204 196 198 199 207 209 209 211 209 211 213 207 213 213 224 229 223 226 216 230 234 225 212 193 208 215 217 224 238 242 230 231 242 251 249 250 252
200 198 198 199 198 207 198 207 199 198 205 205 206 206 206 203 206 206 205 210 213 212 223 223 216 214 220 229 226 211 213 209 213 210 230 238 242 241 241 241 261 254 248 250
193 189 191 195 198 200 203 205 200 195 200 190 196 191 202 198 200 206 199 201 205 205 208 215 218 223 223 225 199 205 201 211 218 218 232 239 237 232 220 208 246 253 237 246
182 181 186 191 193 198 198 198 196 192 190 199 185 198 190 196 200 200 195 195 205 190 201 205 199 213 215 223 230 219 207 204 213 222 228 237 223 225 218 250 263 254 253 259
174 175 183 183 183 190 191 198 196 196 186 188 178 178 193 193 198 202 196 203 193 199 202 213 205 199 206 212 225 224 213 215 220 218 236 238 240 244 258 252 242 255 257 262
167 174 178 181 181 193 191 197 194 200 207 208 211 215 210 192 191 186 205 198 205 206 204 207 197 202 207 205 218 229 237 235 239 231 239 237 248 228 236 249 254 257 267 276
163 169 174 175 185 183 188 191 190 195 183 183 203 227 212 210 196 181 194 205 195 206 203 206 206 208 217 225 227 234 230 238 247 253 253 258 259 263 254 257 260 268 267 271
156 163 161 167 181 187 184 182 191 195 184 204 206 232 223 199 195 197 189 190 203 202 201 211 218 226 232 244 244 241 235 242 238 248 260 255 260 264 267 262 269 258 267 268
135 145 177 171 180 184 182 183 192 189 187 142 201 228 232 201 198 200 199 197 198 206 211 222 230 227 220 234 244 252 255 242 246 248 256 252 250 243 245 269 267 267 263 264
152 156 155 164 166 166 174 178 188 190 197 207 239 225 245 243 221 207 211 199 200 196 207 206 202 208 221 232 243 248 252 253 250 253 259 253 255 259 255 264 262 263 265 270
151 152 151 145 156 168 185 193 187 200 194 201 218 206 209 223 229 202 205 209 205 206 214 215 220 219 231 241 249 253 254 251 242 244 258 263 256 255 256 250 257 266 271 272
137 143 155 173 172 166 164 176 177 183 181 215 231 212 201 203 212 199 196 197 203 211 219 213 217 224 228 244 244 252 257 267 265 264 258 253 256 259 260 260 264 266 271 276
132 131 132 135 146 157 159 151 165 188 212 227 228 223 216 200 210 214 209 185 174 202 211 208 222 229 232 240 244 243 257 248 247 249 247 254 258 263 265 266 266 269 271 274
136 139 137 140 143 153 163 171 189 207 222 229 235 223 215 202 212 219 222 195 196 203 195 209 231 238 232 236 241 251 258 253 251 243 242 248 256 262 267 269 269 271 271 269
144 144 146 148 155 155 171 184 187 202 204 230 224 231 241 207 254 216 211 179 191 184 191 187 215 200 217 231 241 248 252 256 256 245 246 253 269 271 269 272 274 275 272 265
145 136 138 165 154 160 174 185 171 192 209 214 224 233 238 241 244 138 161 147 163 168 177 195 176 213 232 247 254 256 253 251 250 251 249 249 254 262 267 266 264 265 260 253
123 103 101 108 140 189 187 178 207 227 205 193 225 240 232 260 260 125 116 148 167 179 176 174 210 225 241 244 248 232 236 240 235 238 246 247 262 251 262 263 262 259 257 247
61 74 71 233 277 290 265 205 172 169 170 181 223 200 214 244 246 175 170 159 143 114 114 231 251 253 206 190 210 215 239 251 234 235 255 257 260 259 259 234 201 160 157 187
13 291 319 298 276 253 165 163 170 161 160 173 178 161 170 184 176 160 123 99 73 342 355 132 84 222 197 185 192 200 195 182 180 177 161 142 130 103 104 141 148 151 153 239
319 314 233 250 257 179 176 177 168 170 188 200 182 203 168 151 151 114 134 121 175 151 118 123 136 151 151 139 140 145 144 147 141 137 130 135 133 127 121 116 120 111 342 337